Time,TemperatureF,DewpointF,PressureIn,WindDirection,WindDirectionDegrees,WindSpeedMPH,WindSpeedGustMPH,Humidity,HourlyPrecipIn,Conditions,Clouds,dailyrainin,SolarRadiationWatts/m^2,SoftwareType,DateUTC
2013-01-15 00:00:00,42.2,25.3,30.28,NW,319,5.0,13.0,51,0.00,,,0.00,0,Wunderground v.1.15,2013-01-15 05:00:00,
2013-01-15 00:06:00,42.2,25.3,30.30,NW,322,4.0,13.0,51,0.00,,,0.00,0,Wunderground v.1.15,2013-01-15 05:06:00,
2013-01-15 00:08:00,42.2,25.3,30.30,NW,306,4.0,13.0,51,0.00,,,0.00,0,Wunderground v.1.15,2013-01-15 05:08:00,
2013-01-15 00:12:00,42.1,25.3,30.30,NW,317,5.0,6.0,51,0.00,,,0.00,0,Wunderground v.1.15,2013-01-15 05:12:00,
2013-01-15 00:18:00,41.9,25.1,30.29,NW,309,4.0,7.0,51,0.00,,,0.00,0,Wunderground v.1.15,2013-01-15 05:18:00,
2013-01-15 00:24:00,41.8,25.0,30.29,NW,311,4.0,6.0,51,0.00,,,0.00,0,Wunderground v.1.15,2013-01-15 05:24:00,
2013-01-15 00:30:00,41.6,24.8,30.29,NW,313,4.0,7.0,51,0.00,,,0.00,0,Wunderground v.1.15,2013-01-15 05:30:00,
2013-01-15 00:36:00,41.6,25.3,30.30,WNW,297,3.0,7.0,52,0.00,,,0.00,0,Wunderground v.1.15,2013-01-15 05:36:00,
2013-01-15 00:42:00,41.5,25.2,30.30,NW,309,3.0,6.0,52,0.00,,,0.00,0,Wunderground v.1.15,2013-01-15 05:42:00,
2013-01-15 00:48:00,41.3,25.0,30.30,NW,309,3.0,6.0,52,0.00,,,0.00,0,Wunderground v.1.15,2013-01-15 05:48:00,
2013-01-15 00:54:00,41.3,25.0,30.30,NW,309,2.0,6.0,52,0.00,,,0.00,0,Wunderground v.1.15,2013-01-15 05:54:00,
2013-01-15 01:00:00,41.3,25.0,30.30,NW,309,0.0,6.0,52,0.00,,,0.00,0,Wunderground v.1.15,2013-01-15 06:00:00,
2013-01-15 01:06:00,41.2,24.9,30.30,NW,309,2.0,6.0,52,0.00,,,0.00,0,Wunderground v.1.15,2013-01-15 06:06:00,
2013-01-15 01:12:00,41.2,24.9,30.30,NW,309,3.0,4.0,52,0.00,,,0.00,0,Wunderground v.1.15,2013-01-15 06:12:00,
2013-01-15 01:18:00,41.1,24.8,30.30,NW,309,3.0,5.0,52,0.00,,,0.00,0,Wunderground v.1.15,2013-01-15 06:18:00,
2013-01-15 01:24:00,41.1,25.3,30.30,NW,309,2.0,4.0,53,0.00,,,0.00,0,Wunderground v.1.15,2013-01-15 06:24:00,
2013-01-15 01:30:00,40.9,24.1,30.30,NW,309,2.0,5.0,51,0.00,,,0.00,0,Wunderground v.1.15,2013-01-15 06:30:00,
2013-01-15 01:36:00,40.9,24.1,30.30,NW,308,3.0,5.0,51,0.00,,,0.00,0,Wunderground v.1.15,2013-01-15 06:36:00,
2013-01-15 01:42:00,40.9,23.7,30.30,NW,307,2.0,4.0,50,0.00,,,0.00,0,Wunderground v.1.15,2013-01-15 06:42:00,
2013-01-15 01:48:00,40.8,23.6,30.30,NW,308,2.0,4.0,50,0.00,,,0.00,0,Wunderground v.1.15,2013-01-15 06:48:00,
2013-01-15 01:54:00,40.8,24.1,30.30,NW,307,3.0,6.0,51,0.00,,,0.00,0,Wunderground v.1.15,2013-01-15 06:54:00,
2013-01-15 02:00:00,40.8,24.1,30.30,NW,307,4.0,7.0,51,0.00,,,0.00,0,Wunderground v.1.15,2013-01-15 07:00:00,
2013-01-15 02:06:00,40.6,24.3,30.33,NE,44,3.0,7.0,52,0.00,,,0.00,0,Wunderground v.1.15,2013-01-15 07:06:00,
2013-01-15 02:12:00,40.5,25.1,30.33,NW,315,3.0,5.0,54,0.00,,,0.00,0,Wunderground v.1.15,2013-01-15 07:12:00,
2013-01-15 02:18:00,40.3,25.0,30.33,NW,310,5.0,8.0,54,0.00,,,0.00,0,Wunderground v.1.15,2013-01-15 07:18:00,
2013-01-15 02:24:00,40.2,25.3,30.33,NW,310,5.0,5.0,55,0.00,,,0.00,0,Wunderground v.1.15,2013-01-15 07:24:00,
2013-01-15 02:30:00,40.1,24.8,30.33,NW,307,5.0,8.0,54,0.00,,,0.00,0,Wunderground v.1.15,2013-01-15 07:30:00,
2013-01-15 02:36:00,39.9,25.0,30.30,NW,314,4.0,8.0,55,0.00,,,0.00,0,Wunderground v.1.15,2013-01-15 07:36:00,
2013-01-15 02:42:00,39.8,24.9,30.30,NW,309,3.0,3.0,55,0.00,,,0.00,0,Wunderground v.1.15,2013-01-15 07:42:00,
2013-01-15 02:48:00,39.8,24.9,30.31,NW,311,3.0,6.0,55,0.00,,,0.00,0,Wunderground v.1.15,2013-01-15 07:48:00,
2013-01-15 02:54:00,39.6,24.3,30.31,WNW,300,4.0,6.0,54,0.00,,,0.00,0,Wunderground v.1.15,2013-01-15 07:54:00,
2013-01-15 03:00:00,39.6,24.7,30.31,WNW,300,2.0,2.0,55,0.00,,,0.00,0,Wunderground v.1.15,2013-01-15 08:00:00,
2013-01-15 03:06:00,39.5,24.2,30.28,WNW,300,1.0,5.0,54,0.00,,,0.00,0,Wunderground v.1.15,2013-01-15 08:06:00,
2013-01-15 03:12:00,39.5,24.7,30.28,WNW,300,2.0,4.0,55,0.00,,,0.00,0,Wunderground v.1.15,2013-01-15 08:12:00,
2013-01-15 03:18:00,39.5,24.7,30.28,WNW,300,1.0,4.0,55,0.00,,,0.00,0,Wunderground v.1.15,2013-01-15 08:18:00,
2013-01-15 03:24:00,39.5,24.2,30.28,WNW,300,1.0,4.0,54,0.00,,,0.00,0,Wunderground v.1.15,2013-01-15 08:24:00,
2013-01-15 03:30:00,39.5,24.2,30.28,WNW,300,2.0,4.0,54,0.00,,,0.00,0,Wunderground v.1.15,2013-01-15 08:30:00,
2013-01-15 03:36:00,39.3,24.0,30.27,WNW,300,2.0,5.0,54,0.00,,,0.00,0,Wunderground v.1.15,2013-01-15 08:36:00,
2013-01-15 03:42:00,39.3,24.0,30.27,NNE,15,2.0,4.0,54,0.00,,,0.00,0,Wunderground v.1.15,2013-01-15 08:42:00,
2013-01-15 03:48:00,39.3,24.0,30.27,NW,318,2.0,4.0,54,0.00,,,0.00,0,Wunderground v.1.15,2013-01-15 08:48:00,
2013-01-15 03:54:00,39.2,23.9,30.27,NW,315,2.0,4.0,54,0.00,,,0.00,0,Wunderground v.1.15,2013-01-15 08:54:00,
2013-01-15 04:00:00,39.2,23.9,30.27,NW,317,3.0,4.0,54,0.00,,,0.00,0,Wunderground v.1.15,2013-01-15 09:00:00,
2013-01-15 04:06:00,39.2,23.9,30.28,NW,318,2.0,4.0,54,0.00,,,0.00,0,Wunderground v.1.15,2013-01-15 09:06:00,
2013-01-15 04:12:00,39.1,24.3,30.28,NW,317,1.0,2.0,55,0.00,,,0.00,0,Wunderground v.1.15,2013-01-15 09:12:00,
2013-01-15 04:18:00,39.1,24.3,30.28,NW,317,2.0,2.0,55,0.00,,,0.00,0,Wunderground v.1.15,2013-01-15 09:18:00,
2013-01-15 04:24:00,39.1,24.3,30.28,NW,317,1.0,2.0,55,0.00,,,0.00,0,Wunderground v.1.15,2013-01-15 09:24:00,
2013-01-15 04:30:00,39.1,24.3,30.28,NW,317,1.0,1.0,55,0.00,,,0.00,0,Wunderground v.1.15,2013-01-15 09:30:00,
2013-01-15 04:36:00,38.9,24.1,30.25,NW,318,1.0,3.0,55,0.00,,,0.00,0,Wunderground v.1.15,2013-01-15 09:36:00,
2013-01-15 04:42:00,38.9,24.5,30.25,NW,317,1.0,2.0,56,0.00,,,0.00,0,Wunderground v.1.15,2013-01-15 09:42:00,
2013-01-15 04:48:00,38.9,24.5,30.27,NW,318,1.0,2.0,56,0.00,,,0.00,0,Wunderground v.1.15,2013-01-15 09:48:00,
2013-01-15 04:54:00,38.9,24.1,30.27,NW,317,1.0,3.0,55,0.00,,,0.00,0,Wunderground v.1.15,2013-01-15 09:54:00,
2013-01-15 05:00:00,38.8,24.0,30.27,NW,318,1.0,4.0,55,0.00,,,0.00,0,Wunderground v.1.15,2013-01-15 10:00:00,
2013-01-15 05:06:00,38.8,24.0,30.26,NW,318,1.0,4.0,55,0.00,,,0.00,0,Wunderground v.1.15,2013-01-15 10:06:00,
2013-01-15 05:12:00,38.6,23.8,30.26,NW,317,1.0,4.0,55,0.00,,,0.00,0,Wunderground v.1.15,2013-01-15 10:12:00,
2013-01-15 05:18:00,38.6,23.8,30.27,NW,317,2.0,4.0,55,0.00,,,0.00,0,Wunderground v.1.15,2013-01-15 10:18:00,
2013-01-15 05:24:00,38.5,23.7,30.27,NW,318,2.0,4.0,55,0.00,,,0.00,0,Wunderground v.1.15,2013-01-15 10:24:00,
2013-01-15 05:30:00,38.3,24.0,30.27,NW,318,1.0,2.0,56,0.00,,,0.00,0,Wunderground v.1.15,2013-01-15 10:30:00,
2013-01-15 05:36:00,38.2,23.9,30.27,NW,318,1.0,2.0,56,0.00,,,0.00,0,Wunderground v.1.15,2013-01-15 10:36:00,
2013-01-15 05:42:00,38.0,23.7,30.27,NW,317,2.0,4.0,56,0.00,,,0.00,0,Wunderground v.1.15,2013-01-15 10:42:00,
2013-01-15 05:48:00,38.0,23.7,30.27,NW,317,2.0,7.0,56,0.00,,,0.00,0,Wunderground v.1.15,2013-01-15 10:48:00,
2013-01-15 05:54:00,37.9,23.6,30.27,NW,317,2.0,4.0,56,0.00,,,0.00,0,Wunderground v.1.15,2013-01-15 10:54:00,
2013-01-15 06:00:00,37.8,23.9,30.27,NW,318,1.0,1.0,57,0.00,,,0.00,0,Wunderground v.1.15,2013-01-15 11:00:00,
2013-01-15 06:06:00,37.6,24.1,30.27,NW,318,1.0,3.0,58,0.00,,,0.00,0,Wunderground v.1.15,2013-01-15 11:06:00,
2013-01-15 06:12:00,37.5,24.1,30.27,NW,318,0.0,1.0,58,0.00,,,0.00,0,Wunderground v.1.15,2013-01-15 11:12:00,
2013-01-15 06:18:00,37.3,23.9,30.27,NW,318,0.0,1.0,58,0.00,,,0.00,0,Wunderground v.1.15,2013-01-15 11:18:00,
2013-01-15 06:24:00,37.0,23.6,30.27,NW,318,0.0,0.0,58,0.00,,,0.00,0,Wunderground v.1.15,2013-01-15 11:24:00,
2013-01-15 06:30:00,36.9,23.5,30.27,NW,318,1.0,1.0,58,0.00,,,0.00,0,Wunderground v.1.15,2013-01-15 11:30:00,
2013-01-15 06:36:00,36.9,23.9,30.28,NW,318,1.0,1.0,59,0.00,,,0.00,0,Wunderground v.1.15,2013-01-15 11:36:00,
2013-01-15 06:42:00,36.8,23.4,30.28,NW,317,2.0,5.0,58,0.00,,,0.00,0,Wunderground v.1.15,2013-01-15 11:42:00,
2013-01-15 06:48:00,36.8,23.4,30.31,NW,318,3.0,5.0,58,0.00,,,0.00,0,Wunderground v.1.15,2013-01-15 11:48:00,
2013-01-15 06:54:00,36.8,23.8,30.31,NW,318,2.0,3.0,59,0.00,,,0.00,0,Wunderground v.1.15,2013-01-15 11:54:00,
2013-01-15 07:00:00,36.6,23.6,30.31,NW,317,2.0,3.0,59,0.00,,,0.00,0,Wunderground v.1.15,2013-01-15 12:00:00,
2013-01-15 07:06:00,36.5,23.9,30.31,NW,318,1.0,4.0,60,0.00,,,0.00,0,Wunderground v.1.15,2013-01-15 12:06:00,
2013-01-15 07:12:00,36.2,24.0,30.31,NW,318,1.0,4.0,61,0.00,,,0.00,0,Wunderground v.1.15,2013-01-15 12:12:00,
2013-01-15 07:18:00,36.0,23.8,30.32,NW,318,1.0,4.0,61,0.00,,,0.00,0,Wunderground v.1.15,2013-01-15 12:18:00,
2013-01-15 07:24:00,35.9,24.1,30.32,NW,318,2.0,4.0,62,0.00,,,0.00,5,Wunderground v.1.15,2013-01-15 12:24:00,
2013-01-15 07:30:00,35.8,24.0,30.32,NW,318,2.0,4.0,62,0.00,,,0.00,7,Wunderground v.1.15,2013-01-15 12:30:00,
2013-01-15 07:36:00,35.8,24.0,30.33,NW,318,3.0,5.0,62,0.00,,,0.00,16,Wunderground v.1.15,2013-01-15 12:36:00,
2013-01-15 07:42:00,35.6,23.9,30.33,NW,318,2.0,4.0,62,0.00,,,0.00,21,Wunderground v.1.15,2013-01-15 12:42:00,
2013-01-15 07:48:00,35.6,23.9,30.33,NW,315,3.0,4.0,62,0.00,,,0.00,26,Wunderground v.1.15,2013-01-15 12:48:00,
2013-01-15 07:54:00,35.6,23.9,30.33,NW,315,4.0,6.0,62,0.00,,,0.00,26,Wunderground v.1.15,2013-01-15 12:54:00,
2013-01-15 08:00:00,35.5,23.8,30.33,NW,309,4.0,4.0,62,0.00,,,0.00,26,Wunderground v.1.15,2013-01-15 13:00:00,
2013-01-15 08:06:00,35.5,23.8,30.33,NW,309,4.0,5.0,62,0.00,,,0.00,28,Wunderground v.1.15,2013-01-15 13:06:00,
2013-01-15 08:12:00,35.5,23.8,30.33,NW,309,3.0,4.0,62,0.00,,,0.00,40,Wunderground v.1.15,2013-01-15 13:12:00,
2013-01-15 08:18:00,35.5,23.8,30.34,NW,309,3.0,6.0,62,0.00,,,0.00,76,Wunderground v.1.15,2013-01-15 13:18:00,
2013-01-15 08:24:00,35.8,24.0,30.34,NW,309,2.0,6.0,62,0.00,,,0.00,79,Wunderground v.1.15,2013-01-15 13:24:00,
2013-01-15 08:30:00,36.2,24.4,30.34,NW,309,1.0,1.0,62,0.00,,,0.00,97,Wunderground v.1.15,2013-01-15 13:30:00,
2013-01-15 08:36:00,36.5,23.9,30.34,NW,310,1.0,4.0,60,0.00,,,0.00,137,Wunderground v.1.15,2013-01-15 13:36:00,
2013-01-15 08:42:00,36.8,24.2,30.34,NW,310,2.0,4.0,60,0.00,,,0.00,125,Wunderground v.1.15,2013-01-15 13:42:00,
2013-01-15 08:48:00,37.0,24.4,30.34,NW,310,1.0,4.0,60,0.00,,,0.00,123,Wunderground v.1.15,2013-01-15 13:48:00,
2013-01-15 08:54:00,37.2,24.2,30.34,North,5,2.0,4.0,59,0.00,,,0.00,120,Wunderground v.1.15,2013-01-15 13:54:00,
2013-01-15 09:00:00,37.2,23.8,30.34,North,11,3.0,3.0,58,0.00,,,0.00,141,Wunderground v.1.15,2013-01-15 14:00:00,
2013-01-15 09:06:00,37.3,23.9,30.34,NNW,348,3.0,4.0,58,0.00,,,0.00,134,Wunderground v.1.15,2013-01-15 14:06:00,
2013-01-15 09:12:00,37.5,24.1,30.34,NW,316,3.0,8.0,58,0.00,,,0.00,141,Wunderground v.1.15,2013-01-15 14:12:00,
2013-01-15 09:18:00,37.5,23.6,30.34,NNW,335,3.0,8.0,57,0.00,,,0.00,149,Wunderground v.1.15,2013-01-15 14:18:00,
2013-01-15 09:24:00,37.6,24.1,30.34,NNE,30,2.0,3.0,58,0.00,,,0.00,155,Wunderground v.1.15,2013-01-15 14:24:00,
2013-01-15 09:30:00,37.9,24.0,30.34,NNE,28,1.0,3.0,57,0.00,,,0.00,160,Wunderground v.1.15,2013-01-15 14:30:00,
2013-01-15 09:36:00,38.2,24.3,30.34,NNW,328,1.0,3.0,57,0.00,,,0.00,195,Wunderground v.1.15,2013-01-15 14:36:00,
2013-01-15 09:42:00,38.5,24.1,30.34,NNW,328,1.0,3.0,56,0.00,,,0.00,234,Wunderground v.1.15,2013-01-15 14:42:00,
2013-01-15 09:48:00,39.2,24.4,30.35,NNW,328,1.0,4.0,55,0.00,,,0.00,529,Wunderground v.1.15,2013-01-15 14:48:00,
2013-01-15 09:54:00,39.6,23.9,30.35,NW,323,3.0,3.0,53,0.00,,,0.00,503,Wunderground v.1.15,2013-01-15 14:54:00,
2013-01-15 10:00:00,40.2,24.0,30.35,North,11,4.0,4.0,52,0.00,,,0.00,330,Wunderground v.1.15,2013-01-15 15:00:00,
2013-01-15 10:06:00,40.2,23.5,30.34,NW,319,3.0,6.0,51,0.00,,,0.00,223,Wunderground v.1.15,2013-01-15 15:06:00,
2013-01-15 10:12:00,40.1,23.4,30.34,North,5,3.0,4.0,51,0.00,,,0.00,230,Wunderground v.1.15,2013-01-15 15:12:00,
2013-01-15 10:18:00,39.9,23.2,30.35,NNW,329,3.0,5.0,51,0.00,,,0.00,220,Wunderground v.1.15,2013-01-15 15:18:00,
2013-01-15 10:24:00,40.1,23.9,30.35,NW,317,3.0,4.0,52,0.00,,,0.00,179,Wunderground v.1.15,2013-01-15 15:24:00,
2013-01-15 10:30:00,40.1,23.4,30.35,NNW,329,3.0,5.0,51,0.00,,,0.00,311,Wunderground v.1.15,2013-01-15 15:30:00,
2013-01-15 10:36:00,40.1,22.9,30.35,NW,312,4.0,8.0,50,0.00,,,0.00,156,Wunderground v.1.15,2013-01-15 15:36:00,
2013-01-15 10:42:00,39.8,23.1,30.35,NW,311,5.0,5.0,51,0.00,,,0.00,255,Wunderground v.1.15,2013-01-15 15:42:00,
2013-01-15 10:48:00,40.1,22.9,30.35,NW,313,4.0,7.0,50,0.00,,,0.00,171,Wunderground v.1.15,2013-01-15 15:48:00,
2013-01-15 10:54:00,40.1,22.9,30.35,NW,321,4.0,8.0,50,0.00,,,0.00,301,Wunderground v.1.15,2013-01-15 15:54:00,
2013-01-15 11:00:00,40.1,22.9,30.35,NW,311,4.0,4.0,50,0.00,,,0.00,234,Wunderground v.1.15,2013-01-15 16:00:00,
2013-01-15 11:06:00,40.3,23.1,30.33,NW,311,3.0,4.0,50,0.00,,,0.00,192,Wunderground v.1.15,2013-01-15 16:06:00,
2013-01-15 11:12:00,40.3,23.1,30.33,NW,323,1.0,3.0,50,0.00,,,0.00,171,Wunderground v.1.15,2013-01-15 16:12:00,
2013-01-15 11:18:00,40.2,23.0,30.32,NNE,19,1.0,3.0,50,0.00,,,0.00,163,Wunderground v.1.15,2013-01-15 16:18:00,
2013-01-15 11:24:00,40.2,23.5,30.32,NNE,18,1.0,3.0,51,0.00,,,0.00,163,Wunderground v.1.15,2013-01-15 16:24:00,
2013-01-15 11:30:00,40.2,23.0,30.32,NNE,19,1.0,3.0,50,0.00,,,0.00,158,Wunderground v.1.15,2013-01-15 16:30:00,
2013-01-15 11:36:00,40.1,22.9,30.31,NNE,18,1.0,5.0,50,0.00,,,0.00,158,Wunderground v.1.15,2013-01-15 16:36:00,
2013-01-15 11:42:00,39.9,23.2,30.31,NNE,19,2.0,3.0,51,0.00,,,0.00,151,Wunderground v.1.15,2013-01-15 16:42:00,
2013-01-15 11:48:00,40.2,23.5,30.31,NNE,19,1.0,3.0,51,0.00,,,0.00,271,Wunderground v.1.15,2013-01-15 16:48:00,
2013-01-15 11:54:00,40.5,23.8,30.31,NNE,19,1.0,3.0,51,0.00,,,0.00,202,Wunderground v.1.15,2013-01-15 16:54:00,
2013-01-15 12:00:00,40.6,23.4,30.31,NNE,26,2.0,2.0,50,0.00,,,0.00,246,Wunderground v.1.15,2013-01-15 17:00:00,
2013-01-15 12:06:00,40.5,23.3,30.31,WNW,296,3.0,6.0,50,0.00,,,0.00,156,Wunderground v.1.15,2013-01-15 17:06:00,
2013-01-15 12:12:00,40.5,23.3,30.31,NE,46,2.0,6.0,50,0.00,,,0.00,137,Wunderground v.1.15,2013-01-15 17:12:00,
2013-01-15 12:18:00,40.8,23.1,30.30,NNE,24,2.0,6.0,49,0.00,,,0.00,146,Wunderground v.1.15,2013-01-15 17:18:00,
2013-01-15 12:24:00,40.9,23.7,30.30,WNW,298,2.0,6.0,50,0.00,,,0.00,163,Wunderground v.1.15,2013-01-15 17:24:00,
2013-01-15 12:30:00,40.8,23.6,30.30,NW,313,3.0,3.0,50,0.00,,,0.00,172,Wunderground v.1.15,2013-01-15 17:30:00,
2013-01-15 12:36:00,40.6,22.9,30.31,NW,313,2.0,6.0,49,0.00,,,0.00,155,Wunderground v.1.15,2013-01-15 17:36:00,
2013-01-15 12:42:00,40.8,23.1,30.31,NW,313,2.0,6.0,49,0.00,,,0.00,132,Wunderground v.1.15,2013-01-15 17:42:00,
2013-01-15 12:48:00,40.8,23.1,30.30,NW,313,2.0,6.0,49,0.00,,,0.00,141,Wunderground v.1.15,2013-01-15 17:48:00,
2013-01-15 12:54:00,40.8,23.1,30.30,NW,313,2.0,6.0,49,0.00,,,0.00,134,Wunderground v.1.15,2013-01-15 17:54:00,
2013-01-15 13:00:00,40.9,23.7,30.30,NW,313,1.0,1.0,50,0.00,,,0.00,158,Wunderground v.1.15,2013-01-15 18:00:00,
2013-01-15 13:06:00,41.2,23.5,30.30,NW,313,1.0,6.0,49,0.00,,,0.00,153,Wunderground v.1.15,2013-01-15 18:06:00,
2013-01-15 13:12:00,41.2,23.9,30.30,NW,313,1.0,1.0,50,0.00,,,0.00,155,Wunderground v.1.15,2013-01-15 18:12:00,
2013-01-15 13:18:00,41.3,24.0,30.30,NW,313,1.0,4.0,50,0.00,,,0.00,134,Wunderground v.1.15,2013-01-15 18:18:00,
2013-01-15 13:24:00,41.3,23.6,30.30,NW,313,1.0,2.0,49,0.00,,,0.00,128,Wunderground v.1.15,2013-01-15 18:24:00,
2013-01-15 13:30:00,41.2,23.5,30.30,WNW,302,2.0,4.0,49,0.00,,,0.00,127,Wunderground v.1.15,2013-01-15 18:30:00,
2013-01-15 13:36:00,41.1,23.9,30.30,WNW,302,3.0,4.0,50,0.00,,,0.00,132,Wunderground v.1.15,2013-01-15 18:36:00,
2013-01-15 13:42:00,40.9,23.7,30.30,WNW,302,2.0,2.0,50,0.00,,,0.00,116,Wunderground v.1.15,2013-01-15 18:42:00,
2013-01-15 13:48:00,40.9,23.2,30.30,WNW,302,1.0,2.0,49,0.00,,,0.00,114,Wunderground v.1.15,2013-01-15 18:48:00,
2013-01-15 13:54:00,40.9,23.7,30.30,WNW,302,1.0,2.0,50,0.00,,,0.00,114,Wunderground v.1.15,2013-01-15 18:54:00,
2013-01-15 14:00:00,40.8,23.1,30.30,WNW,302,2.0,2.0,49,0.00,,,0.00,107,Wunderground v.1.15,2013-01-15 19:00:00,
2013-01-15 14:06:00,40.8,23.1,30.30,WNW,302,2.0,4.0,49,0.00,,,0.00,113,Wunderground v.1.15,2013-01-15 19:06:00,
2013-01-15 14:12:00,40.8,23.1,30.30,WNW,302,1.0,4.0,49,0.00,,,0.00,127,Wunderground v.1.15,2013-01-15 19:12:00,
2013-01-15 14:18:00,41.1,23.4,30.30,WNW,302,1.0,4.0,49,0.00,,,0.00,123,Wunderground v.1.15,2013-01-15 19:18:00,
2013-01-15 14:24:00,40.8,23.1,30.30,WNW,302,3.0,5.0,49,0.00,,,0.00,105,Wunderground v.1.15,2013-01-15 19:24:00,
2013-01-15 14:30:00,40.8,23.1,30.30,WNW,302,2.0,2.0,49,0.00,,,0.00,102,Wunderground v.1.15,2013-01-15 19:30:00,
2013-01-15 14:36:00,40.9,23.7,30.30,WNW,302,1.0,4.0,50,0.00,,,0.00,90,Wunderground v.1.15,2013-01-15 19:36:00,
2013-01-15 14:42:00,41.1,23.9,30.30,WNW,302,0.0,4.0,50,0.00,,,0.00,90,Wunderground v.1.15,2013-01-15 19:42:00,
2013-01-15 14:48:00,41.1,23.9,30.29,WNW,302,0.0,4.0,50,0.00,,,0.00,93,Wunderground v.1.15,2013-01-15 19:48:00,
2013-01-15 14:54:00,41.1,23.9,30.29,WNW,302,0.0,4.0,50,0.00,,,0.00,88,Wunderground v.1.15,2013-01-15 19:54:00,
2013-01-15 15:00:00,40.9,23.2,30.29,WNW,302,2.0,4.0,49,0.00,,,0.00,95,Wunderground v.1.15,2013-01-15 20:00:00,
2013-01-15 15:06:00,40.8,23.1,30.29,WNW,302,3.0,5.0,49,0.00,,,0.00,84,Wunderground v.1.15,2013-01-15 20:06:00,
2013-01-15 15:12:00,40.8,23.1,30.29,WNW,302,1.0,5.0,49,0.00,,,0.00,88,Wunderground v.1.15,2013-01-15 20:12:00,
2013-01-15 15:18:00,40.8,23.6,30.29,WNW,302,1.0,5.0,50,0.00,,,0.00,90,Wunderground v.1.15,2013-01-15 20:18:00,
2013-01-15 15:24:00,40.9,23.7,30.29,WNW,302,1.0,5.0,50,0.00,,,0.00,83,Wunderground v.1.15,2013-01-15 20:24:00,
2013-01-15 15:30:00,41.1,23.4,30.29,WNW,302,1.0,5.0,49,0.00,,,0.00,81,Wunderground v.1.15,2013-01-15 20:30:00,
2013-01-15 15:36:00,41.1,23.9,30.29,WNW,302,1.0,5.0,50,0.00,,,0.00,86,Wunderground v.1.15,2013-01-15 20:36:00,
2013-01-15 15:42:00,40.9,23.2,30.29,WNW,302,1.0,5.0,49,0.00,,,0.00,76,Wunderground v.1.15,2013-01-15 20:42:00,
2013-01-15 15:48:00,40.9,22.7,30.27,WNW,302,0.0,5.0,48,0.00,,,0.00,76,Wunderground v.1.15,2013-01-15 20:48:00,
2013-01-15 15:54:00,40.8,22.6,30.27,WNW,302,0.0,5.0,48,0.00,,,0.00,67,Wunderground v.1.15,2013-01-15 20:54:00,
2013-01-15 16:00:00,40.8,22.6,30.27,WNW,302,0.0,5.0,48,0.00,,,0.00,53,Wunderground v.1.15,2013-01-15 21:00:00,
2013-01-15 16:06:00,40.8,23.1,30.28,WNW,302,1.0,5.0,49,0.00,,,0.00,40,Wunderground v.1.15,2013-01-15 21:06:00,
2013-01-15 16:12:00,40.8,23.1,30.28,WNW,302,1.0,5.0,49,0.00,,,0.00,35,Wunderground v.1.15,2013-01-15 21:12:00,
2013-01-15 16:18:00,40.6,22.9,30.28,WNW,302,1.0,5.0,49,0.00,,,0.00,25,Wunderground v.1.15,2013-01-15 21:18:00,
2013-01-15 16:24:00,40.6,22.4,30.28,WNW,302,0.0,5.0,48,0.00,,,0.00,14,Wunderground v.1.15,2013-01-15 21:24:00,
2013-01-15 16:30:00,40.5,22.8,30.28,WNW,302,1.0,5.0,49,0.00,,,0.00,7,Wunderground v.1.15,2013-01-15 21:30:00,
2013-01-15 16:36:00,40.3,22.6,30.28,WNW,302,1.0,5.0,49,0.00,,,0.00,5,Wunderground v.1.15,2013-01-15 21:36:00,
2013-01-15 16:42:00,40.2,23.0,30.28,WNW,302,0.0,5.0,50,0.00,,,0.00,0,Wunderground v.1.15,2013-01-15 21:42:00,
2013-01-15 16:48:00,40.2,23.0,30.29,WNW,302,0.0,5.0,50,0.00,,,0.00,0,Wunderground v.1.15,2013-01-15 21:48:00,
2013-01-15 16:54:00,40.1,23.4,30.29,WNW,302,0.0,5.0,51,0.00,,,0.00,0,Wunderground v.1.15,2013-01-15 21:54:00,
2013-01-15 17:00:00,39.9,23.7,30.29,WNW,302,0.0,5.0,52,0.00,,,0.00,0,Wunderground v.1.15,2013-01-15 22:00:00,
2013-01-15 17:06:00,39.8,23.6,30.30,WNW,302,0.0,5.0,52,0.00,,,0.00,0,Wunderground v.1.15,2013-01-15 22:06:00,
2013-01-15 17:12:00,39.6,22.9,30.30,WNW,302,0.0,0.0,51,0.00,,,0.00,0,Wunderground v.1.15,2013-01-15 22:12:00,
2013-01-15 17:18:00,39.5,23.3,30.30,WNW,302,0.0,0.0,52,0.00,,,0.00,0,Wunderground v.1.15,2013-01-15 22:18:00,
2013-01-15 17:24:00,39.3,23.1,30.30,WNW,302,0.0,0.0,52,0.00,,,0.00,0,Wunderground v.1.15,2013-01-15 22:24:00,
2013-01-15 17:30:00,39.2,23.5,30.30,WNW,302,0.0,0.0,53,0.00,,,0.00,0,Wunderground v.1.15,2013-01-15 22:30:00,
2013-01-15 17:36:00,39.1,23.8,30.31,WNW,302,0.0,0.0,54,0.00,,,0.00,0,Wunderground v.1.15,2013-01-15 22:36:00,
2013-01-15 17:42:00,39.1,24.3,30.31,WNW,302,0.0,0.0,55,0.00,,,0.00,0,Wunderground v.1.15,2013-01-15 22:42:00,
2013-01-15 17:48:00,38.9,24.9,30.30,WNW,302,0.0,0.0,57,0.00,,,0.00,0,Wunderground v.1.15,2013-01-15 22:48:00,
2013-01-15 17:54:00,38.9,24.1,30.30,WNW,302,0.0,0.0,55,0.00,,,0.00,0,Wunderground v.1.15,2013-01-15 22:54:00,
2013-01-15 18:00:00,38.8,24.0,30.30,WNW,302,0.0,0.0,55,0.00,,,0.00,0,Wunderground v.1.15,2013-01-15 23:00:00,
2013-01-15 18:06:00,38.8,24.0,30.30,WNW,302,0.0,0.0,55,0.00,,,0.00,0,Wunderground v.1.15,2013-01-15 23:06:00,
2013-01-15 18:12:00,38.6,24.7,30.30,WNW,302,0.0,0.0,57,0.00,,,0.00,0,Wunderground v.1.15,2013-01-15 23:12:00,
2013-01-15 18:18:00,38.5,24.1,30.30,WNW,302,0.0,0.0,56,0.00,,,0.00,0,Wunderground v.1.15,2013-01-15 23:18:00,
2013-01-15 18:24:00,38.3,24.0,30.30,WNW,302,0.0,0.0,56,0.00,,,0.00,0,Wunderground v.1.15,2013-01-15 23:24:00,
2013-01-15 18:30:00,38.0,23.7,30.30,WNW,302,0.0,0.0,56,0.00,,,0.00,0,Wunderground v.1.15,2013-01-15 23:30:00,
2013-01-15 18:36:00,37.8,23.9,30.30,WNW,302,0.0,2.0,57,0.00,,,0.00,0,Wunderground v.1.15,2013-01-15 23:36:00,
2013-01-15 18:42:00,37.3,23.9,30.30,WNW,302,0.0,0.0,58,0.00,,,0.00,0,Wunderground v.1.15,2013-01-15 23:42:00,
2013-01-15 18:48:00,37.0,24.0,30.32,WNW,302,0.0,0.0,59,0.00,,,0.00,0,Wunderground v.1.15,2013-01-15 23:48:00,
2013-01-15 18:54:00,36.9,23.9,30.32,WNW,302,0.0,0.0,59,0.00,,,0.00,0,Wunderground v.1.15,2013-01-15 23:54:00,
2013-01-15 19:00:00,36.9,23.5,30.32,WNW,302,0.0,0.0,58,0.00,,,0.00,0,Wunderground v.1.15,2013-01-16 00:00:00,
2013-01-15 19:06:00,36.9,23.5,30.32,WNW,302,0.0,1.0,58,0.00,,,0.00,0,Wunderground v.1.15,2013-01-16 00:06:00,
2013-01-15 19:12:00,36.9,23.1,30.32,WNW,302,0.0,1.0,57,0.00,,,0.00,0,Wunderground v.1.15,2013-01-16 00:12:00,
2013-01-15 19:18:00,37.0,23.2,30.32,WNW,302,0.0,1.0,57,0.00,,,0.00,0,Wunderground v.1.15,2013-01-16 00:18:00,
2013-01-15 19:24:00,37.0,22.7,30.32,WNW,302,0.0,1.0,56,0.00,,,0.00,0,Wunderground v.1.15,2013-01-16 00:24:00,
2013-01-15 19:30:00,37.0,22.7,30.32,WNW,302,0.0,1.0,56,0.00,,,0.00,0,Wunderground v.1.15,2013-01-16 00:30:00,
2013-01-15 19:36:00,37.0,22.7,30.32,WNW,302,0.0,1.0,56,0.00,,,0.00,0,Wunderground v.1.15,2013-01-16 00:36:00,
2013-01-15 19:42:00,36.9,22.7,30.32,WNW,302,0.0,1.0,56,0.00,,,0.00,0,Wunderground v.1.15,2013-01-16 00:42:00,
2013-01-15 19:48:00,36.8,22.6,30.32,WNW,302,0.0,1.0,56,0.00,,,0.00,0,Wunderground v.1.15,2013-01-16 00:48:00,
2013-01-15 19:54:00,36.6,22.4,30.32,WNW,302,0.0,1.0,56,0.00,,,0.00,0,Wunderground v.1.15,2013-01-16 00:54:00,
2013-01-15 20:00:00,36.5,23.1,30.32,WNW,302,0.0,1.0,58,0.00,,,0.00,0,Wunderground v.1.15,2013-01-16 01:00:00,
2013-01-15 20:06:00,36.3,23.3,30.32,WNW,302,0.0,1.0,59,0.00,,,0.00,0,Wunderground v.1.15,2013-01-16 01:06:00,
2013-01-15 20:12:00,36.3,22.9,30.32,WNW,302,0.0,4.0,58,0.00,,,0.00,0,Wunderground v.1.15,2013-01-16 01:12:00,
2013-01-15 20:18:00,36.3,22.9,30.30,WNW,302,1.0,4.0,58,0.00,,,0.00,0,Wunderground v.1.15,2013-01-16 01:18:00,
2013-01-15 20:24:00,36.3,22.5,30.30,WNW,302,1.0,1.0,57,0.00,,,0.00,0,Wunderground v.1.15,2013-01-16 01:24:00,
2013-01-15 20:30:00,36.3,22.5,30.30,WNW,302,1.0,1.0,57,0.00,,,0.00,0,Wunderground v.1.15,2013-01-16 01:30:00,
2013-01-15 20:36:00,36.2,22.4,30.31,WNW,302,0.0,1.0,57,0.00,,,0.00,0,Wunderground v.1.15,2013-01-16 01:36:00,
2013-01-15 20:42:00,36.2,22.8,30.31,WNW,302,0.0,4.0,58,0.00,,,0.00,0,Wunderground v.1.15,2013-01-16 01:42:00,
2013-01-15 20:48:00,36.2,22.4,30.30,NE,49,1.0,4.0,57,0.00,,,0.00,0,Wunderground v.1.15,2013-01-16 01:48:00,
2013-01-15 20:54:00,36.2,22.4,30.30,NNE,18,2.0,2.0,57,0.00,,,0.00,0,Wunderground v.1.15,2013-01-16 01:54:00,
2013-01-15 21:00:00,36.0,22.2,30.30,NNE,18,1.0,1.0,57,0.00,,,0.00,0,Wunderground v.1.15,2013-01-16 02:00:00,
2013-01-15 21:06:00,36.0,22.2,30.30,NNE,18,1.0,2.0,57,0.00,,,0.00,0,Wunderground v.1.15,2013-01-16 02:06:00,
2013-01-15 21:12:00,35.9,22.1,30.30,NNE,18,0.0,0.0,57,0.00,,,0.00,0,Wunderground v.1.15,2013-01-16 02:12:00,
2013-01-15 21:18:00,35.9,22.5,30.30,NNE,18,0.0,0.0,58,0.00,,,0.00,0,Wunderground v.1.15,2013-01-16 02:18:00,
2013-01-15 21:24:00,35.8,22.5,30.30,NNE,18,0.0,0.0,58,0.00,,,0.00,0,Wunderground v.1.15,2013-01-16 02:24:00,
2013-01-15 21:30:00,35.8,22.5,30.30,NNE,18,0.0,0.0,58,0.00,,,0.00,0,Wunderground v.1.15,2013-01-16 02:30:00,
2013-01-15 21:36:00,35.8,22.0,30.30,NNE,18,0.0,0.0,57,0.00,,,0.00,0,Wunderground v.1.15,2013-01-16 02:36:00,
2013-01-15 21:42:00,35.8,22.0,30.30,NNE,18,0.0,1.0,57,0.00,,,0.00,0,Wunderground v.1.15,2013-01-16 02:42:00,
2013-01-15 21:48:00,35.8,22.0,30.30,NNE,18,0.0,2.0,57,0.00,,,0.00,0,Wunderground v.1.15,2013-01-16 02:48:00,
2013-01-15 21:54:00,35.8,22.5,30.30,NNE,18,0.0,0.0,58,0.00,,,0.00,0,Wunderground v.1.15,2013-01-16 02:54:00,
2013-01-15 22:00:00,35.6,21.9,30.30,NNE,18,0.0,0.0,57,0.00,,,0.00,0,Wunderground v.1.15,2013-01-16 03:00:00,
2013-01-15 22:06:00,35.6,21.4,30.29,NNE,18,1.0,2.0,56,0.00,,,0.00,0,Wunderground v.1.15,2013-01-16 03:06:00,
2013-01-15 22:12:00,35.6,21.4,30.29,NNE,18,1.0,2.0,56,0.00,,,0.00,0,Wunderground v.1.15,2013-01-16 03:12:00,
2013-01-15 22:18:00,35.6,21.4,30.29,NNE,18,1.0,2.0,56,0.00,,,0.00,0,Wunderground v.1.15,2013-01-16 03:18:00,
2013-01-15 22:24:00,35.5,21.3,30.29,NNE,18,0.0,2.0,56,0.00,,,0.00,0,Wunderground v.1.15,2013-01-16 03:24:00,
2013-01-15 22:30:00,35.5,21.8,30.29,NNE,18,0.0,2.0,57,0.00,,,0.00,0,Wunderground v.1.15,2013-01-16 03:30:00,
2013-01-15 22:36:00,35.5,21.8,30.28,NNE,18,0.0,2.0,57,0.00,,,0.00,0,Wunderground v.1.15,2013-01-16 03:36:00,
2013-01-15 22:42:00,35.3,22.0,30.28,NNE,18,0.0,2.0,58,0.00,,,0.00,0,Wunderground v.1.15,2013-01-16 03:42:00,
2013-01-15 22:48:00,35.3,22.0,30.28,NNE,18,0.0,2.0,58,0.00,,,0.00,0,Wunderground v.1.15,2013-01-16 03:48:00,
2013-01-15 22:54:00,35.2,21.9,30.28,NNE,18,0.0,2.0,58,0.00,,,0.00,0,Wunderground v.1.15,2013-01-16 03:54:00,
2013-01-15 23:00:00,35.2,21.9,30.28,NNE,18,0.0,2.0,58,0.00,,,0.00,0,Wunderground v.1.15,2013-01-16 04:00:00,
2013-01-15 23:06:00,35.0,21.7,30.29,NNE,18,0.0,2.0,58,0.00,,,0.00,0,Wunderground v.1.15,2013-01-16 04:06:00,
2013-01-15 23:12:00,35.0,22.1,30.29,NNE,18,0.0,0.0,59,0.00,,,0.00,0,Wunderground v.1.15,2013-01-16 04:12:00,
2013-01-15 23:18:00,34.9,22.0,30.30,NNE,18,0.0,0.0,59,0.00,,,0.00,0,Wunderground v.1.15,2013-01-16 04:18:00,
2013-01-15 23:24:00,34.9,22.4,30.30,NNE,18,0.0,0.0,60,0.00,,,0.00,0,Wunderground v.1.15,2013-01-16 04:24:00,
2013-01-15 23:30:00,34.9,22.8,30.30,NNE,18,0.0,0.0,61,0.00,,,0.00,0,Wunderground v.1.15,2013-01-16 04:30:00,
2013-01-15 23:36:00,34.9,22.4,30.29,NNE,18,0.0,0.0,60,0.00,,,0.00,0,Wunderground v.1.15,2013-01-16 04:36:00,
2013-01-15 23:42:00,34.9,22.4,30.29,NNE,18,0.0,0.0,60,0.00,,,0.00,0,Wunderground v.1.15,2013-01-16 04:42:00,
2013-01-15 23:48:00,34.9,22.4,30.29,NNE,18,0.0,0.0,60,0.00,,,0.00,0,Wunderground v.1.15,2013-01-16 04:48:00,
2013-01-15 23:54:00,34.9,22.8,30.29,NNE,18,0.0,0.0,61,0.00,,,0.00,0,Wunderground v.1.15,2013-01-16 04:54:00,